Regional Weather Roundup
Issued by NWS Memphis, TN

Home | Current Version | Previous Version | Text Only | Print | Product List | Glossary On
Versions: 1 2 3 4 5 6 7 8 9 10 11 12 13 14 15 16 17 18 19 20 21 22 23 24 25 26 27 28 29 30 31 32 33 34 35 36 37 38 39 40 41 42 43 44 45 46 47 48 49 50
000
ASUS44 KMEG 220110
RWRMEG
MEMPHIS CWA HOURLY WEATHER ROUNDUP
NATIONAL WEATHER SERVICE MEMPHIS TN
700 PM CST WED FEB 21 2018

...WEST TENNESSEE...

CITY           SKY/WX    TMP DP  RH WIND       PRES   REMARKS
MEMPHIS INTL   LGT RAIN  47  46  97 E13       30.27F
NWS MEMPHIS      N/A     45 N/A N/A MISG        N/A
JACKSON        RAIN      45  45 100 NE7       30.34S
COVINGTON      CLOUDY    45  43  93 E9G17     30.31F
SOMERVILLE     CLOUDY    45  45 100 VRB5      30.28F FOG
BOLIVAR        CLOUDY    46  45  93 N7        30.30F
LEXINGTON      CLOUDY    45  45 100 N10G17    30.34S
SAVANNAH       CLOUDY    52  50  93 NE9G16    30.31S FOG
DYERSBURG      RAIN      43  42  97 E10       30.35F
UNION CITY     CLOUDY    43  41  93 NE12      30.35F FOG
PARIS          CLOUDY    43  41  93 NE10      30.36F


...EASTERN ARKANSAS...

CITY           SKY/WX    TMP DP  RH WIND       PRES   REMARKS
JONESBORO      RAIN      39  38  96 NE17      30.36R WCI  30
WEST MEMPHIS   LGT RAIN  47  32  56 NE13      30.24F
BATESVILLE     LGT RAIN  38  36  92 N8        30.37S FOG     WCI  32
NEWPORT        RAIN      38  37  97 N18       30.36R WCI  28
BLYTHEVILLE    LGT RAIN  44  32  62 E14       30.33F
SEARCY         RAIN      42  42 100 N15       30.31S
STUTTGART      RAIN      48  47  96 NE17      30.24F
PINE BLUFF     RAIN      50  50 100 E21G26    30.18F
MONTICELLO     HVY RAIN  53  51  93 E15G26    30.22F FOG


...NORTH MISSISSIPPI...

CITY           SKY/WX    TMP DP  RH WIND       PRES   REMARKS
TUPELO         MOCLDY    58  54  86 N14       30.24F
OXFORD         RAIN      52  50  93 NE8G17    30.29R
BATESVILLE       N/A    N/A N/A N/A MISG        N/A
OLIVE BRANCH   RAIN      45  45 100 NE12      30.28S FOG
TUNICA         LGT RAIN  46  46 100 NE15      30.26F
CLARKSDALE     CLOUDY    50  50 100 NE16      30.23F FOG
CORINTH        CLOUDY    54  50  87 NE10G16   30.29S
GREENWOOD      HVY RAIN  57  56  96 NE9       30.22R FOG
COLUMBUS       FAIR      64  64 100 N7        30.21R
STARKVILLE     LGT RAIN  63  61  94 N5        30.23R
GOLDEN TRIANGL LGT RAIN  68  65  90 N5        30.22R


...SOUTHEAST MISSOURI...

CITY           SKY/WX    TMP DP  RH WIND       PRES   REMARKS
KENNETT        LGT RAIN  41  39  93 N13       30.35R
MALDEN         DRIZZLE   37  36  93 N14       30.41R WCI  29
WEST PLAINS    FRZ RAIN  30  28  92 NE13G24   30.40F WCI  20
POPLAR BLUFF   LGT RAIN  35  33  92 N15       30.42R WCI  25
CAPE GIRARDEAU CLOUDY    36  33  89 N14       30.44R WCI  27


...NORTHWEST ALABAMA...

CITY           SKY/WX    TMP DP  RH WIND       PRES   REMARKS
MUSCLE SHOALS  CLOUDY    61  55  81 VRB7      30.29R


...MIDDLE TENNESSEE...

CITY           SKY/WX    TMP DP  RH WIND       PRES   REMARKS
NASHVILLE      CLOUDY    50  46  86 N12       30.38R
CLARKSVILLE    LGT RAIN  44  41  89 N12       30.41F
COLUMBIA       CLOUDY    54  54 100 N12       30.33R


...WESTERN KENTUCKY...

CITY           SKY/WX    TMP DP  RH WIND       PRES   REMARKS
PADUCAH        LGT RAIN  39  37  92 NE12      30.38F WCI  32
FORT CAMPBELL  RAIN      43  43  99 N12       30.40


...CENTRAL ARKANSAS...

CITY           SKY/WX    TMP DP  RH WIND       PRES   REMARKS
LITTLE ROCK    RAIN      43  43 100 N13       30.27R FOG


SKY/WX REPORTED AS FAIR MEANS FEW OR NO CLOUDS BELOW
12 THOUSAND FEET.





USA.gov is the U.S. government's official web portal to all federal, state and local government web resources and services.